EW3197 Weather Reports


Display with metric or nautical units.
time (UTC)temp
F
wind
direction
speed
MPH
gust
MPH
rain 1hr
in
rain 24hr
in
rain mn
in
humidity
%
barometer
mb
20190918034704 47 43 0.0 0.0 0.00 0.00 0.00 94 1022.8
20190918034204 47 43 0.0 0.0 0.00 0.00 0.00 94 1022.9
20190918033703 47 43 0.0 0.0 0.00 0.00 0.00 94 1022.8
20190918033204 47 43 0.0 0.0 0.00 0.00 0.00 93 1022.9
20190918032704 47 43 0.0 0.0 0.00 0.00 0.00 94 1022.9
20190918032204 47 43 0.0 0.0 0.00 0.00 0.00 93 1022.8
20190918031704 47 43 0.0 0.0 0.00 0.00 0.00 93 1022.8
20190918031204 47 43 0.0 0.0 0.00 0.00 0.00 93 1022.9
20190918030703 47 43 0.0 0.0 0.00 0.00 0.00 93 1022.9
20190918030204 47 43 0.0 0.0 0.00 0.00 0.00 93 1022.9
20190918025704 47 43 0.0 0.0 0.00 0.00 0.00 93 1022.9
20190918025203 47 43 0.0 0.0 0.00 0.00 0.00 93 1022.8
20190918024704 48 43 0.0 0.0 0.00 0.00 0.00 93 1022.8
20190918024204 48 43 0.0 0.0 0.00 0.00 0.00 93 1022.8
20190918023703 48 43 0.0 0.0 0.00 0.00 0.00 93 1022.7
20190918023204 48 43 0.0 0.0 0.00 0.00 0.00 93 1022.6
20190918022704 48 43 0.0 0.0 0.00 0.00 0.00 92 1022.6
20190918022203 48 43 0.0 0.0 0.00 0.00 0.00 92 1022.5
20190918021704 48 43 0.0 0.0 0.00 0.00 0.00 92 1022.5
20190918021204 48 43 0.0 0.0 0.00 0.00 0.00 92 1022.4
20190918020704 48 43 0.0 0.0 0.00 0.00 0.00 92 1022.3
20190918020204 48 43 0.0 0.0 0.00 0.00 0.00 92 1022.2
20190918015704 48 43 0.0 0.0 0.00 0.00 0.00 92 1022.2
20190918015203 48 43 0.0 0.0 0.00 0.00 0.00 91 1022.2
20190918014704 49 43 0.0 0.0 0.00 0.00 0.00 91 1022.1
20190918014204 49 43 0.0 0.0 0.00 0.00 0.00 91 1022.1
20190918013704 49 43 0.0 0.0 0.00 0.00 0.00 91 1022.0
20190918013205 49 43 0.0 0.0 0.00 0.00 0.00 91 1021.9
20190918012704 49 43 0.0 0.0 0.00 0.00 0.00 90 1021.8
20190918012204 49 43 0.0 0.0 0.00 0.00 0.00 90 1021.8
20190918011704 50 43 0.0 0.0 0.00 0.00 0.00 90 1021.8
20190918011203 50 43 0.0 0.0 0.00 0.00 0.00 90 1021.7
20190918010704 50 43 0.0 0.0 0.00 0.00 0.00 89 1021.6
20190918010205 50 43 0.0 0.0 0.00 0.00 0.00 89 1021.5
20190918005704 50 43 0.0 0.0 0.00 0.00 0.00 89 1021.5
20190918005204 50 43 0.0 0.0 0.00 0.00 0.00 89 1021.5
20190918004703 50 43 0.0 0.0 0.00 0.00 0.00 88 1021.4
20190918004203 51 43 0.0 0.0 0.00 0.00 0.00 87 1021.3
20190918003704 51 43 0.0 0.0 0.00 0.00 0.00 87 1021.3
20190918003204 51 43 0.0 0.0 0.00 0.00 0.00 87 1021.3
20190918002703 51 43 0.0 0.0 0.00 0.00 0.00 87 1021.3
20190918002204 51 43 0.0 0.0 0.00 0.00 0.00 87 1021.3
20190918001704 51 43 0.0 0.0 0.00 0.00 0.00 86 1021.2
20190918001203 52 43 0.0 0.0 0.00 0.00 0.00 85 1021.1
20190918000704 52 43 0.0 0.0 0.00 0.00 0.00 85 1021.1
20190918000203 53 43 0.0 0.0 0.00 0.00 0.00 85 1021.0
20190917235704 53 43 0.0 0.0 0.00 0.00 0.00 84 1021.0
20190917235204 53 43 0.0 0.0 0.00 0.00 0.00 84 1020.9
20190917234703 53 43 0.0 0.0 0.00 0.00 0.00 83 1020.9
20190917234203 54 43 0.0 0.0 0.00 0.00 0.00 84 1020.8
20190917233704 54 43 0.0 0.0 0.00 0.00 0.00 83 1020.7
20190917233203 55 43 0.0 0.0 0.00 0.00 0.00 82 1020.7
20190917232703 55 43 0.0 0.0 0.00 0.00 0.00 82 1020.6
20190917232204 56 43 0.0 0.0 0.00 0.00 0.00 81 1020.6
20190917231704 56 43 0.0 0.0 0.00 0.00 0.00 80 1020.5
20190917231204 57 43 0.0 0.0 0.00 0.00 0.00 79 1020.6
20190917230704 58 43 0.0 0.0 0.00 0.00 0.00 74 1020.6
20190917230204 58 43 0.0 0.0 0.00 0.00 0.00 74 1020.5
20190917225703 59 43 0.0 0.0 0.00 0.00 0.00 73 1020.5
20190917225204 59 43 0.0 0.0 0.00 0.00 0.00 71 1020.5
20190917224704 60 43 0.0 0.0 0.00 0.00 0.00 71 1020.4
20190917224204 61 43 0.0 0.0 0.00 0.00 0.00 71 1020.4
20190917223703 62 43 0.0 0.0 0.00 0.00 0.00 67 1020.3
20190917223204 64 43 0.0 0.0 0.00 0.00 0.00 64 1020.3
20190917222704 65 43 0.0 2.0 0.00 0.00 0.00 54 1020.3
20190917222203 66 43 1.0 2.0 0.00 0.00 0.00 48 1020.2
20190917221703 66 49 2.0 3.0 0.00 0.00 0.00 44 1020.3
20190917221203 67 357 1.0 3.0 0.00 0.00 0.00 43 1020.2
20190917220704 67 338 1.0 3.0 0.00 0.00 0.00 44 1020.2
20190917220204 67 47 1.0 3.0 0.00 0.00 0.00 41 1020.3
20190917215704 68 51 1.0 3.0 0.00 0.00 0.00 39 1020.2
20190917215204 68 352 1.0 3.0 0.00 0.00 0.00 39 1020.1
20190917214703 69 52 2.0 8.0 0.00 0.00 0.00 36 1020.1
20190917214203 69 73 2.0 9.0 0.00 0.00 0.00 36 1020.1
20190917213703 69 63 4.0 9.0 0.00 0.00 0.00 34 1020.1
20190917213204 69 48 2.0 8.0 0.00 0.00 0.00 36 1020.1
20190917212703 70 53 1.0 6.0 0.00 0.00 0.00 35 1020.1
20190917212204 70 76 3.0 8.0 0.00 0.00 0.00 34 1020.0
20190917211703 70 88 3.0 7.0 0.00 0.00 0.00 32 1020.1
20190917211204 70 98 3.0 10.0 0.00 0.00 0.00 31 1020.1
20190917210703 70 49 3.0 9.0 0.00 0.00 0.00 30 1020.2
20190917210204 71 305 3.0 9.0 0.00 0.00 0.00 31 1020.2
20190917205704 71 353 3.0 8.0 0.00 0.00 0.00 33 1020.1
20190917205204 71 3 2.0 5.0 0.00 0.00 0.00 34 1020.1
20190917204703 71 333 2.0 9.0 0.00 0.00 0.00 36 1020.1
20190917204204 71 311 2.0 5.0 0.00 0.00 0.00 36 1020.1
20190917203704 71 73 2.0 7.0 0.00 0.00 0.00 35 1020.2
20190917203204 72 59 3.0 10.0 0.00 0.00 0.00 38 1020.2
20190917202704 71 25 3.0 10.0 0.00 0.00 0.00 38 1020.2
20190917202204 72 318 5.0 13.0 0.00 0.00 0.00 38 1020.2
20190917201703 72 342 3.0 8.0 0.00 0.00 0.00 37 1020.1
20190917201203 72 292 3.0 9.0 0.00 0.00 0.00 39 1020.1
20190917200704 72 335 5.0 12.0 0.00 0.00 0.00 37 1020.2
20190917200204 72 350 5.0 10.0 0.00 0.00 0.00 38 1020.2
20190917195704 72 346 2.0 5.0 0.00 0.00 0.00 39 1020.1
20190917195204 72 22 5.0 14.0 0.00 0.00 0.00 38 1020.1
20190917194703 72 42 6.0 12.0 0.00 0.00 0.00 37 1020.0
20190917194204 72 355 4.0 10.0 0.00 0.00 0.00 38 1020.0
20190917193703 72 2 4.0 9.0 0.00 0.00 0.00 36 1019.9
20190917193204 72 39 6.0 14.0 0.00 0.00 0.00 36 1019.9
20190917192704 72 63 5.0 14.0 0.00 0.00 0.00 35 1020.0
20190917192204 71 348 6.0 16.0 0.00 0.00 0.00 35 1020.1
20190917191704 72 43 6.0 12.0 0.00 0.00 0.00 34 1020.1
20190917191204 72 29 3.0 14.0 0.00 0.00 0.00 34 1020.0
20190917190704 72 349 4.0 14.0 0.00 0.00 0.00 33 1020.1
20190917190204 72 26 3.0 10.0 0.00 0.00 0.00 33 1020.1
20190917185703 72 8 2.0 8.0 0.00 0.00 0.00 37 1020.0
20190917185204 72 17 3.0 10.0 0.00 0.00 0.00 36 1020.1
20190917184704 72 335 3.0 12.0 0.00 0.00 0.00 37 1020.2
20190917184204 72 321 4.0 12.0 0.00 0.00 0.00 36 1020.3
20190917183703 72 296 1.0 8.0 0.00 0.00 0.00 37 1020.2
20190917183204 72 335 3.0 9.0 0.00 0.00 0.00 34 1020.3
20190917182704 72 344 6.0 12.0 0.00 0.00 0.00 33 1020.3
20190917182204 72 302 5.0 16.0 0.00 0.00 0.00 33 1020.3
20190917181704 72 303 2.0 8.0 0.00 0.00 0.00 36 1020.4
20190917181204 72 20 6.0 12.0 0.00 0.00 0.00 32 1020.4
20190917180704 72 297 4.0 14.0 0.00 0.00 0.00 34 1020.5
20190917180205 71 345 4.0 12.0 0.00 0.00 0.00 35 1020.4
20190917175704 72 11 2.0 9.0 0.00 0.00 0.00 44 1020.4
20190917175204 71 27 2.0 6.0 0.00 0.00 0.00 49 1020.3
20190917174704 71 338 1.0 8.0 0.00 0.00 0.00 52 1020.4
20190917174204 71 320 3.0 8.0 0.00 0.00 0.00 50 1020.5
20190917173705 70 20 1.0 9.0 0.00 0.00 0.00 54 1020.5
20190917173204 71 343 4.0 8.0 0.00 0.00 0.00 48 1020.6
20190917172704 71 359 2.0 6.0 0.00 0.00 0.00 51 1020.6
20190917172204 71 39 2.0 7.0 0.00 0.00 0.00 50 1020.6
20190917171703 70 340 3.0 10.0 0.00 0.00 0.00 51 1020.6
20190917171203 70 31 2.0 12.0 0.00 0.00 0.00 50 1020.7
20190917170703 70 47 2.0 5.0 0.00 0.00 0.00 44 1020.7
20190917170203 70 71 3.0 8.0 0.00 0.00 0.00 46 1020.7
20190917165703 70 285 3.0 9.0 0.00 0.00 0.00 51 1020.7
20190917165204 69 356 2.0 9.0 0.00 0.00 0.00 51 1020.7
20190917164704 69 43 3.0 6.0 0.00 0.00 0.00 49 1020.7
20190917164204 69 305 2.0 8.0 0.00 0.00 0.00 51 1020.8
20190917163704 69 358 2.0 9.0 0.00 0.00 0.00 49 1020.8
20190917163204 68 2 3.0 9.0 0.00 0.00 0.00 49 1020.8
20190917162704 68 276 2.0 12.0 0.00 0.00 0.00 54 1020.9
20190917162203 68 346 4.0 8.0 0.00 0.00 0.00 54 1020.9
20190917161704 67 268 3.0 12.0 0.00 0.00 0.00 53 1020.9
20190917161203 67 299 1.0 9.0 0.00 0.00 0.00 55 1021.0
20190917160704 67 309 2.0 6.0 0.00 0.00 0.00 55 1021.1
20190917160203 67 324 4.0 8.0 0.00 0.00 0.00 56 1021.1
20190917155704 67 321 2.0 6.0 0.00 0.00 0.00 57 1021.2
20190917155203 66 266 2.0 9.0 0.00 0.00 0.00 56 1021.2
20190917154704 66 313 2.0 10.0 0.00 0.00 0.00 59 1021.2
20190917154204 66 330 3.0 10.0 0.00 0.00 0.00 59 1021.3
20190917153704 66 294 2.0 6.0 0.00 0.00 0.00 58 1021.3
20190917153204 66 264 2.0 9.0 0.00 0.00 0.00 59 1021.4
20190917152704 66 272 5.0 9.0 0.00 0.00 0.00 60 1021.4
20190917152204 66 326 2.0 8.0 0.00 0.00 0.00 64 1021.5
20190917151704 65 63 2.0 8.0 0.00 0.00 0.00 64 1021.5
20190917151204 65 255 1.0 3.0 0.00 0.00 0.00 65 1021.5
20190917150704 64 328 2.0 3.0 0.00 0.00 0.00 65 1021.5
20190917150204 64 319 3.0 7.0 0.00 0.00 0.00 67 1021.6
20190917145704 64 260 2.0 6.0 0.00 0.00 0.00 66 1021.5
20190917145204 63 123 1.0 3.0 0.00 0.00 0.00 68 1021.6
20190917144703 63 356 1.0 3.0 0.00 0.00 0.00 70 1021.6
20190917144204 63 340 1.0 5.0 0.00 0.00 0.00 69 1021.7
20190917143704 62 30 0.0 5.0 0.00 0.00 0.00 74 1021.7
20190917143204 62 313 2.0 7.0 0.00 0.00 0.00 69 1021.7
20190917142704 62 343 1.0 5.0 0.00 0.00 0.00 74 1021.7
20190917142204 61 237 1.0 3.0 0.00 0.00 0.00 74 1021.7
20190917141704 61 96 0.0 1.0 0.00 0.00 0.00 76 1021.7
20190917141204 60 72 2.0 3.0 0.00 0.00 0.00 75 1021.8
20190917140704 59 316 0.0 0.0 0.00 0.00 0.00 79 1021.8
20190917140204 58 100 0.0 0.0 0.00 0.00 0.00 82 1021.9
20190917135704 58 101 0.0 0.0 0.00 0.00 0.00 83 1021.9
20190917135204 57 101 0.0 0.0 0.00 0.00 0.00 82 1021.9
20190917134703 57 101 0.0 0.0 0.00 0.00 0.00 86 1021.8
20190917134204 55 101 0.0 0.0 0.00 0.00 0.00 88 1021.8
20190917133704 55 101 0.0 0.0 0.00 0.00 0.00 88 1021.8
20190917133204 55 101 0.0 0.0 0.00 0.00 0.00 88 1021.8
20190917132704 54 101 0.0 1.0 0.00 0.00 0.00 89 1021.8
20190917132203 54 101 1.0 3.0 0.00 0.00 0.00 89 1021.8
20190917131704 53 71 1.0 2.0 0.00 0.00 0.00 89 1021.7
20190917131204 53 71 2.0 3.0 0.00 0.00 0.00 90 1021.7
20190917130703 52 0 0.0 0.0 0.00 0.00 0.00 92 1021.7
20190917130204 51 0 0.0 0.0 0.00 0.00 0.00 95 1021.7
20190917125704 51 0 0.0 0.0 0.00 0.00 0.00 95 1021.7
20190917125204 50 0 0.0 0.0 0.00 0.00 0.00 95 1021.7
20190917124704 50 0 0.0 0.0 0.00 0.00 0.00 95 1021.7
20190917124204 49 0 0.0 0.0 0.00 0.00 0.00 96 1021.7
20190917123703 49 0 0.0 0.0 0.00 0.00 0.00 96 1021.7
20190917123203 48 0 0.0 0.0 0.00 0.00 0.00 96 1021.6
20190917122703 48 0 0.0 0.0 0.00 0.00 0.00 97 1021.6
20190917122204 47 0 0.0 0.0 0.00 0.00 0.00 97 1021.6
20190917121704 47 0 0.0 0.0 0.00 0.00 0.00 97 1021.6
20190917121203 47 0 0.0 0.0 0.00 0.00 0.00 97 1021.6
20190917120704 46 0 0.0 0.0 0.00 0.00 0.00 97 1021.5
20190917120204 46 0 0.0 0.0 0.00 0.00 0.00 97 1021.5
20190917115703 45 0 0.0 0.0 0.00 0.00 0.00 97 1021.4
20190917115204 45 0 0.0 0.0 0.00 0.00 0.00 97 1021.4
20190917114704 45 0 0.0 0.0 0.00 0.00 0.00 97 1021.3
20190917114203 44 0 0.0 0.0 0.00 0.00 0.00 97 1021.3
20190917113704 44 0 0.0 0.0 0.00 0.00 0.00 97 1021.3
20190917113204 44 0 0.0 0.0 0.00 0.00 0.00 97 1021.3
20190917112704 44 0 0.0 0.0 0.00 0.00 0.00 97 1021.3
20190917112203 43 0 0.0 0.0 0.00 0.00 0.00 97 1021.3
20190917111704 43 0 0.0 0.0 0.00 0.00 0.00 97 1021.4
20190917111204 43 0 0.0 0.0 0.00 0.00 0.00 96 1021.4
20190917110703 43 0 0.0 0.0 0.00 0.00 0.00 96 1021.3
20190917110204 43 0 0.0 0.0 0.00 0.00 0.00 97 1021.3
20190917105704 43 0 0.0 0.0 0.00 0.00 0.00 96 1021.2
20190917105204 43 0 0.0 0.0 0.00 0.00 0.00 96 1021.1
20190917104703 43 0 0.0 0.0 0.00 0.00 0.00 96 1021.1
20190917104204 43 0 0.0 0.0 0.00 0.00 0.00 96 1021.0
20190917103704 43 0 0.0 0.0 0.00 0.00 0.00 96 1021.0
20190917103204 43 0 0.0 0.0 0.00 0.00 0.00 96 1020.9
20190917102704 43 0 0.0 0.0 0.00 0.00 0.00 96 1020.9
20190917102205 43 0 0.0 0.0 0.00 0.00 0.00 96 1020.8
20190917101703 43 0 0.0 0.0 0.00 0.00 0.00 96 1020.7
20190917101203 43 0 0.0 0.0 0.00 0.00 0.00 96 1020.7
20190917100703 44 0 0.0 0.0 0.00 0.00 0.00 96 1020.7
20190917100204 44 0 0.0 0.0 0.00 0.00 0.00 96 1020.6
20190917095704 44 0 0.0 0.0 0.00 0.00 0.00 96 1020.6
20190917095203 45 0 0.0 0.0 0.00 0.00 0.00 96 1020.5
20190917094704 45 0 0.0 0.0 0.00 0.00 0.00 96 1020.4
20190917094204 45 0 0.0 0.0 0.00 0.00 0.00 96 1020.4
20190917093704 45 0 0.0 0.0 0.00 0.00 0.00 96 1020.4
20190917093204 45 0 0.0 0.0 0.00 0.00 0.00 96 1020.3
20190917092703 45 0 0.0 0.0 0.00 0.00 0.00 96 1020.2
20190917092204 45 0 0.0 0.0 0.00 0.00 0.00 96 1020.1
20190917091704 45 0 0.0 0.0 0.00 0.00 0.00 96 1020.1
20190917091203 45 0 0.0 0.0 0.00 0.00 0.00 96 1020.0
20190917090704 44 0 0.0 0.0 0.00 0.00 0.00 96 1020.0
20190917090204 44 0 0.0 0.0 0.00 0.00 0.00 96 1020.0
20190917085703 45 0 0.0 0.0 0.00 0.00 0.00 96 1019.9
20190917085204 45 0 0.0 0.0 0.00 0.00 0.00 96 1019.9
20190917084704 45 0 0.0 0.0 0.00 0.00 0.00 96 1019.8
20190917084204 45 0 0.0 0.0 0.00 0.00 0.00 96 1019.8
20190917083703 45 0 0.0 0.0 0.00 0.00 0.00 96 1019.9
20190917083204 45 0 0.0 0.0 0.00 0.00 0.00 96 1019.9
20190917082704 45 0 0.0 0.0 0.00 0.00 0.00 96 1019.9
20190917082203 45 0 0.0 0.0 0.00 0.00 0.00 96 1019.9
20190917081704 45 0 0.0 0.0 0.00 0.00 0.00 96 1019.9
20190917081204 45 0 0.0 0.0 0.00 0.00 0.00 96 1019.9
20190917080704 45 0 0.0 0.0 0.00 0.00 0.00 96 1019.8
20190917080203 46 0 0.0 0.0 0.00 0.00 0.00 96 1019.8
20190917075703 46 0 0.0 0.0 0.00 0.00 0.00 96 1019.8
20190917075204 45 0 0.0 0.0 0.00 0.00 0.00 96 1019.8
20190917074704 45 0 0.0 0.0 0.00 0.00 0.00 96 1019.7
20190917074204 45 0 0.0 0.0 0.00 0.00 0.00 96 1019.8
20190917073703 46 0 0.0 0.0 0.00 0.00 0.00 96 1019.7
20190917073203 46 0 0.0 0.0 0.00 0.00 0.00 96 1019.8
20190917072703 46 0 0.0 0.0 0.00 0.00 0.00 96 1019.7
20190917072204 46 0 0.0 0.0 0.00 0.00 0.00 96 1019.7
20190917071703 46 0 0.0 0.0 0.00 0.00 0.00 95 1019.8
20190917071203 46 0 0.0 0.0 0.00 0.00 0.00 95 1019.8
20190917070704 46 0 0.0 0.0 0.00 0.00 0.00 96 1019.9
20190917070204 46 0 0.0 0.0 0.00 0.00 0.00 95 1019.8
20190917065704 46 0 0.0 0.0 0.00 0.00 0.00 96 1019.9
20190917065203 47 0 0.0 0.0 0.00 0.00 0.00 96 1019.9
20190917064703 47 0 0.0 0.0 0.00 0.00 0.00 96 1019.9
20190917064203 47 0 0.0 0.0 0.00 0.00 0.00 96 1019.9
20190917063704 47 0 0.0 0.0 0.00 0.00 0.00 96 1019.8
20190917063203 47 0 0.0 0.0 0.00 0.00 0.00 96 1019.8
20190917062704 47 0 0.0 0.0 0.00 0.00 0.00 96 1019.8
20190917062204 47 0 0.0 0.0 0.00 0.00 0.00 95 1019.8
20190917061703 47 0 0.0 0.0 0.00 0.00 0.00 96 1019.8
20190917061204 47 0 0.0 0.0 0.00 0.00 0.00 96 1019.8
20190917060703 47 0 0.0 0.0 0.00 0.00 0.00 96 1019.8
20190917060203 47 0 0.0 0.0 0.00 0.00 0.00 96 1019.9
20190917055703 47 0 0.0 0.0 0.00 0.00 0.00 95 1019.9
20190917055203 47 0 0.0 0.0 0.00 0.00 0.00 96 1019.9
20190917054704 48 0 0.0 0.0 0.00 0.00 0.00 96 1019.9
20190917054204 48 0 0.0 0.0 0.00 0.00 0.00 96 1019.8
20190917053704 48 0 0.0 0.0 0.00 0.00 0.00 96 1019.8
20190917053204 48 0 0.0 0.0 0.00 0.00 0.00 95 1019.8
20190917052704 48 0 0.0 0.0 0.00 0.00 0.00 95 1019.8
20190917052204 48 0 0.0 0.0 0.00 0.00 0.00 96 1019.8
20190917051704 48 0 0.0 0.0 0.00 0.00 0.00 96 1019.7
20190917051204 48 0 0.0 0.0 0.00 0.00 0.00 96 1019.6
20190917050703 48 0 0.0 0.0 0.00 0.00 0.00 96 1019.6
20190917050204 48 0 0.0 0.0 0.00 0.00 0.00 96 1019.6
20190917045704 48 0 0.0 0.0 0.00 0.00 0.00 96 1019.6
20190917045203 48 0 0.0 0.0 0.00 0.00 0.00 95 1019.4
20190917044703 49 0 0.0 0.0 0.00 0.00 0.00 95 1019.4
20190917044203 49 0 0.0 0.0 0.00 0.00 0.00 95 1019.3
20190917043703 49 0 0.0 0.0 0.00 0.00 0.00 95 1019.3
20190917043204 49 0 0.0 0.0 0.00 0.00 0.00 95 1019.2
20190917042703 49 0 0.0 0.0 0.00 0.00 0.00 95 1019.2
20190917042204 49 0 0.0 0.0 0.00 0.00 0.00 95 1019.2
20190917041704 50 0 0.0 0.0 0.00 0.00 0.00 95 1019.2
20190917041203 50 0 0.0 0.0 0.00 0.00 0.00 95 1019.1
20190917040703 50 0 0.0 0.0 0.00 0.00 0.00 95 1019.1
20190917040204 50 0 0.0 0.0 0.00 0.00 0.00 95 1019.1
20190917035704 49 0 0.0 0.0 0.00 0.00 0.00 95 1019.1
20190917035204 50 0 0.0 0.0 0.00 0.00 0.00 95 1019.0